[ hide orbit diagram ]
For accurate long-term ephemerides, please instead use our Horizons system.This orbit viewer was implemented using two-body methods, and hence should not be used for determining accurate long-term trajectories (over several years or decades) or planetary encounter circumstances.
Orbital Elements at Epoch 2459200.5 (2020-Dec-17.0) TDB
Reference: JPL 22 (heliocentric ecliptic J2000)
Element | Value | Uncertainty (1-sigma) | Units |
e | .1872039986274841 | 4.5813e-08 | |
a | 2.610347612944611 | 9.9369e-09 | au |
q | 2.121680101993672 | 1.2205e-07 | au |
i | 3.638064566847323 | 4.4955e-06 | deg |
node | 183.709108477158 | 4.6944e-05 | deg |
peri | 198.0784645350681 | 4.7974e-05 | deg |
M | 2.075732556671117 | 8.1186e-06 | deg |
tp | 2459191.617916724528 (2020-Dec-08.11791672) | 3.4739e-05 | TDB |
period | 1540.444104368529 4.22 | 8.7961e-06 2.408e-08 | d yr |
n | .2336988398209839 | 1.3344e-09 | deg/d |
Q | 3.09901512389555 | 1.1797e-08 | au |
|
| | Orbit Determination Parameters
Additional Information
|
[ show covariance matrix ]
Physical Parameter Table
Parameter |
Symbol |
Value |
Units |
Sigma |
Reference |
Notes |
absolute magnitude |
H |
16.01 |
|
n/a |
E2021B55 |
|
|
102337 (1999 TN114) Discovered 1999-Oct-04 by LINEAR at Socorro |
Reference: 20051019/Numbers.arc | Last Updated: 2005-10-26 |
|
Alternate Designations
1999 TN114 = 1999 TL222 = 2003 PL9 |
|
|